Weather WX

World > North America > United States > Mississippi

Jennings, Mississippi Regional Weather

Lat: 31.19N, Lon: 90.38W
Wx Zone: MSZ070
Feedback

Jennings, MS Regional Weather

Expires:201906160000;;130769
ASUS44 KJAN 152310
RWRMS 

MISSISSIPPI HOURLY WEATHER ROUNDUP
NATIONAL WEATHER SERVICE JACKSON MS
600 PM CDT SAT JUN 15 2019

NOTE: "FAIR: INDICATES FEW OR NO CLOUDS BELOW 12,000 FEET WITH NO
SIGNIFICANT WEATHER AND/OR OBSTRUCTIONS TO VISIBILITY.


MSZ059>079-160000-
SOUTH MISSISSIPPI
  
CITY           SKY/WX    TMP DP  RH WIND       PRES   REMARKS
BROOKHAVEN     MOCLDY    84  73  70 NE8       30.00R HX  91           
HATTIESBURG    FAIR      86  72  62 S9        29.99S HX  92           
LAUREL         CLEAR     86  71  62 SE6       29.98F HX  91           
MCCOMB         PTSUNNY   84  72  67 S20G26    30.01R                  
NATCHEZ        FAIR      79  71  76 CALM      29.98S                  
PINE BELT      PTSUNNY   87  72  60 S10       29.99S HX  93           
$$


SKY/WX - Weather  TMP - Temperature  DP - Dew Point  RH - Relative Humidity
WIND - Wind Direction/Speed PRES - Barometric Pressure VSB - Visibility
WCI - Wind Chill Index E13G22 Wind - East Wind 13 mph/Gusts of 22 mph